Location: Goldmont Forest
(38.0233°N, 120.2524°W)
Time: 21:34:17
(UTC+00:00)

BlueWalker 3 - Pass Details

Date: 05 August 2024
Orbit: 476 x 487 km, 53.2° (Epoch: 07 September)

Event Time Altitude Azimuth Distance (km) Brightness Sun altitude
Exits shadow 12:00:53 16° 270° (W) 1,366 3.6 -12.5°
Maximum altitude 12:03:23 31° 326° (NNW) 878 3.1 -12.1°
Drops below altitude 10° 12:06:50 10° 31° (NNE) 1,693 5.7 -11.5°
Sets 12:09:17 0° 42° (NE) 2,615 7.3 -11.1°
